TGL9304 EGPH-LFBZ

Flight info

Callsign TGL9304
Flight time 2h 13m
Altitude 35000
Route GOSAM P600 FENIK L612 NAVSO DCT ADZOP DCT EGTOC DCT NOKIN N862 KARNO/N0448F360 DCT ALHUP DCT ABWIV DCT PACSE DCT SIDHO DCT TONQU/N0440F350 DCT MANIG DCT BADUR DCT KORER UM616 TUPAR DCT CNA DCT VAVIX/N0362F190 DCT MAGEC
Aircraft A320/M-SDE3FGHIRWY/LB1

Departure

Time 2026-04-20 12:26
Airport Edinburgh Airport (EGPH)

Arrival

Time 2026-04-20 14:39
Airport Biarritz Pays Basque airport (LFBZ)
Time Latitude Longitude Altitude Speed Heading
2026-04-20 12:03 55.94874 -3.35847 107 ft 0 kts 209°
2026-04-20 12:08 55.94883 -3.35838 106 ft 3 kts 209°
2026-04-20 12:08 55.94901 -3.35815 107 ft 3 kts 238°
2026-04-20 12:09 55.94907 -3.35780 106 ft 3 kts 282°
2026-04-20 12:09 55.94905 -3.35764 107 ft 1 kts 297°
2026-04-20 12:13 55.94906 -3.35769 106 ft 2 kts 297°
2026-04-20 12:13 55.94927 -3.35831 108 ft 8 kts 303°
2026-04-20 12:14 55.94984 -3.35854 107 ft 10 kts 15°
2026-04-20 12:14 55.95053 -3.35792 106 ft 11 kts 20°
2026-04-20 12:14 55.95114 -3.35846 106 ft 11 kts 304°
2026-04-20 12:14 55.95176 -3.35951 104 ft 14 kts 328°
2026-04-20 12:15 55.95194 -3.36107 101 ft 14 kts 240°
2026-04-20 12:15 55.95143 -3.36257 104 ft 14 kts 239°
2026-04-20 12:15 55.95096 -3.36398 106 ft 12 kts 238°
2026-04-20 12:15 55.95059 -3.36502 108 ft 9 kts 237°
2026-04-20 12:16 55.95026 -3.36597 107 ft 9 kts 238°
2026-04-20 12:16 55.94995 -3.36693 107 ft 8 kts 240°
2026-04-20 12:16 55.94968 -3.36774 107 ft 7 kts 240°
2026-04-20 12:16 55.94941 -3.36856 105 ft 8 kts 238°
2026-04-20 12:17 55.94905 -3.36957 104 ft 11 kts 237°
2026-04-20 12:17 55.94870 -3.37056 105 ft 8 kts 238°
2026-04-20 12:17 55.94844 -3.37136 105 ft 7 kts 240°
2026-04-20 12:17 55.94821 -3.37207 105 ft 6 kts 240°
2026-04-20 12:18 55.94802 -3.37263 104 ft 5 kts 238°
2026-04-20 12:18 55.94770 -3.37356 108 ft 9 kts 238°
2026-04-20 12:18 55.94759 -3.37388 108 ft 0 kts 238°
2026-04-20 12:22 55.94745 -3.37428 108 ft 8 kts 240°
2026-04-20 12:22 55.94708 -3.37542 111 ft 13 kts 239°
2026-04-20 12:23 55.94657 -3.37691 113 ft 15 kts 238°
2026-04-20 12:23 55.94592 -3.37878 112 ft 19 kts 239°
2026-04-20 12:23 55.94526 -3.38074 111 ft 18 kts 239°
2026-04-20 12:23 55.94462 -3.38261 112 ft 16 kts 238°
2026-04-20 12:24 55.94411 -3.38412 113 ft 13 kts 239°
2026-04-20 12:24 55.94371 -3.38532 114 ft 9 kts 239°
2026-04-20 12:24 55.94329 -3.38657 118 ft 16 kts 239°
2026-04-20 12:24 55.94285 -3.38838 120 ft 13 kts 283°
2026-04-20 12:25 55.94360 -3.38941 118 ft 16 kts 328°
2026-04-20 12:25 55.94432 -3.38907 117 ft 0 kts 52°
2026-04-20 12:25 55.94441 -3.38886 116 ft 10 kts 52°
2026-04-20 12:26 55.94555 -3.38549 115 ft 67 kts 59°
2026-04-20 12:26 55.94940 -3.37416 108 ft 143 kts 59°
2026-04-20 12:26 55.95447 -3.35904 1004 ft 129 kts 59°
2026-04-20 12:26 55.95884 -3.34572 1942 ft 123 kts 62°
2026-04-20 12:27 55.96367 -3.33185 2537 ft 145 kts 57°
2026-04-20 12:27 55.97020 -3.31737 3343 ft 149 kts 45°
2026-04-20 12:27 55.97838 -3.30498 4025 ft 160 kts 40°
2026-04-20 12:27 55.98770 -3.29185 4312 ft 181 kts 39°
2026-04-20 12:28 55.99925 -3.28013 4554 ft 205 kts 13°
2026-04-20 12:28 56.01409 -3.28117 4808 ft 226 kts 340°
2026-04-20 12:28 56.02736 -3.29763 5163 ft 244 kts 304°
2026-04-20 12:28 56.03286 -3.32602 5812 ft 249 kts 269°
2026-04-20 12:29 56.03066 -3.35659 5986 ft 247 kts 257°
2026-04-20 12:29 56.02660 -3.38636 6011 ft 246 kts 253°
2026-04-20 12:29 56.02201 -3.41600 6011 ft 247 kts 253°
2026-04-20 12:29 56.01729 -3.44594 6016 ft 262 kts 253°
2026-04-20 12:30 56.01233 -3.47804 6011 ft 270 kts 254°
2026-04-20 12:30 56.00747 -3.51055 6012 ft 271 kts 255°
2026-04-20 12:30 56.00271 -3.54322 6013 ft 271 kts 255°
2026-04-20 12:30 55.99800 -3.57606 6013 ft 272 kts 255°
2026-04-20 12:31 55.99331 -3.60887 6013 ft 272 kts 255°
2026-04-20 12:31 55.98863 -3.64168 6013 ft 272 kts 255°
2026-04-20 12:31 55.98404 -3.67403 6013 ft 272 kts 255°
2026-04-20 12:31 55.97936 -3.70676 6014 ft 272 kts 255°
2026-04-20 12:32 55.97463 -3.73953 6017 ft 272 kts 255°
2026-04-20 12:32 55.96987 -3.77255 6675 ft 275 kts 255°
2026-04-20 12:32 55.96507 -3.80580 7569 ft 277 kts 255°
2026-04-20 12:32 55.96018 -3.83953 8371 ft 283 kts 255°
2026-04-20 12:33 55.95525 -3.87339 9203 ft 286 kts 255°
2026-04-20 12:33 55.95017 -3.90810 10044 ft 290 kts 256°
2026-04-20 12:33 55.94501 -3.94338 10724 ft 300 kts 256°
2026-04-20 12:33 55.93882 -3.98051 10960 ft 324 kts 248°
2026-04-20 12:34 55.92774 -4.01677 11367 ft 339 kts 234°
2026-04-20 12:34 55.91180 -4.04828 12048 ft 345 kts 221°
2026-04-20 12:34 55.89233 -4.07362 12788 ft 348 kts 214°
2026-04-20 12:34 55.87222 -4.09815 13532 ft 352 kts 214°
2026-04-20 12:35 55.85212 -4.12275 14160 ft 356 kts 215°
2026-04-20 12:35 55.83159 -4.14794 14301 ft 357 kts 215°
2026-04-20 12:35 55.81113 -4.17302 14331 ft 357 kts 215°
2026-04-20 12:35 55.79062 -4.19811 14354 ft 358 kts 215°
2026-04-20 12:36 55.76995 -4.22353 14942 ft 361 kts 214°
2026-04-20 12:36 55.74820 -4.24492 15616 ft 364 kts 202°
2026-04-20 12:36 55.72373 -4.25692 16264 ft 367 kts 188°
2026-04-20 12:36 55.69808 -4.25813 16884 ft 370 kts 174°
2026-04-20 12:37 55.67287 -4.24819 17494 ft 373 kts 159°
2026-04-20 12:37 55.64905 -4.22906 18098 ft 376 kts 153°
2026-04-20 12:37 55.62576 -4.20728 18686 ft 380 kts 150°
2026-04-20 12:37 55.60262 -4.18416 19191 ft 384 kts 149°
2026-04-20 12:38 55.57934 -4.16037 19702 ft 387 kts 149°
2026-04-20 12:38 55.55592 -4.13650 20200 ft 391 kts 150°
2026-04-20 12:38 55.53242 -4.11290 20705 ft 394 kts 150°
2026-04-20 12:38 55.50833 -4.08913 21184 ft 398 kts 150°
2026-04-20 12:39 55.45935 -4.04157 22134 ft 405 kts 151°
2026-04-20 12:39 55.43451 -4.01755 22609 ft 408 kts 151°
2026-04-20 12:39 55.40951 -3.99338 23090 ft 411 kts 151°
2026-04-20 12:40 55.38434 -3.96908 23655 ft 411 kts 151°
2026-04-20 12:40 55.35935 -3.94494 24194 ft 411 kts 151°
2026-04-20 12:40 55.33408 -3.92058 24604 ft 413 kts 151°
2026-04-20 12:40 55.30877 -3.89619 24982 ft 416 kts 151°
2026-04-20 12:41 55.28323 -3.87161 25349 ft 419 kts 151°
2026-04-20 12:41 55.25797 -3.84735 25749 ft 421 kts 151°
2026-04-20 12:41 55.23209 -3.82279 26165 ft 422 kts 154°
2026-04-20 12:41 55.20479 -3.80337 26518 ft 424 kts 163°
2026-04-20 12:42 55.17646 -3.78783 26884 ft 428 kts 163°
2026-04-20 12:42 55.14796 -3.77230 27207 ft 431 kts 163°
2026-04-20 12:42 55.11922 -3.75662 27545 ft 434 kts 163°
2026-04-20 12:42 55.09021 -3.74076 27878 ft 437 kts 163°
2026-04-20 12:43 55.06101 -3.72480 28214 ft 440 kts 163°
2026-04-20 12:43 55.03175 -3.70887 28545 ft 442 kts 163°
2026-04-20 12:43 55.00256 -3.69296 28886 ft 445 kts 163°
2026-04-20 12:43 54.97286 -3.67675 29196 ft 448 kts 163°
2026-04-20 12:44 54.94291 -3.66046 29504 ft 451 kts 163°
2026-04-20 12:44 54.91278 -3.64415 29803 ft 455 kts 163°
2026-04-20 12:44 54.88248 -3.62776 30114 ft 457 kts 163°
2026-04-20 12:44 54.85187 -3.61117 30407 ft 460 kts 163°
2026-04-20 12:45 54.82112 -3.59452 30656 ft 463 kts 163°
2026-04-20 12:45 54.79023 -3.57787 30910 ft 465 kts 163°
2026-04-20 12:45 54.75968 -3.56142 31164 ft 467 kts 163°
2026-04-20 12:45 54.72861 -3.54474 31419 ft 468 kts 163°
2026-04-20 12:46 54.69739 -3.52800 31673 ft 469 kts 163°
2026-04-20 12:46 54.66627 -3.51133 32025 ft 468 kts 163°
2026-04-20 12:46 54.63505 -3.49464 32375 ft 468 kts 163°
2026-04-20 12:46 54.60399 -3.47811 32721 ft 467 kts 163°
2026-04-20 12:47 54.57291 -3.46160 33063 ft 466 kts 163°
2026-04-20 12:47 54.54175 -3.44503 33414 ft 466 kts 163°
2026-04-20 12:47 54.51079 -3.42862 33756 ft 465 kts 163°
2026-04-20 12:47 54.48017 -3.41243 34104 ft 464 kts 163°
2026-04-20 12:48 54.44926 -3.39609 34421 ft 464 kts 163°
2026-04-20 12:48 54.41829 -3.37972 34666 ft 464 kts 164°
2026-04-20 12:48 54.38732 -3.36332 34900 ft 465 kts 163°
2026-04-20 12:48 54.35639 -3.34695 35143 ft 465 kts 163°
2026-04-20 12:49 54.32538 -3.33059 35277 ft 465 kts 163°
2026-04-20 12:49 54.26381 -3.29823 35309 ft 464 kts 164°
2026-04-20 12:50 54.20195 -3.26600 35304 ft 464 kts 165°
2026-04-20 12:50 54.13774 -3.24857 35308 ft 470 kts 177°
2026-04-20 12:51 54.07274 -3.23859 35308 ft 472 kts 176°
2026-04-20 12:51 54.00718 -3.22815 35307 ft 473 kts 174°
2026-04-20 12:52 53.94285 -3.20536 35291 ft 474 kts 169°
2026-04-20 12:52 53.87820 -3.18069 35301 ft 475 kts 169°
2026-04-20 12:53 53.81352 -3.15625 35299 ft 475 kts 169°
2026-04-20 12:53 53.74927 -3.13207 35301 ft 475 kts 169°
2026-04-20 12:54 53.68466 -3.10780 35288 ft 474 kts 169°
2026-04-20 12:54 53.63086 -3.08762 35306 ft 475 kts 169°
2026-04-20 12:55 53.55561 -3.05954 35303 ft 475 kts 169°
2026-04-20 12:55 53.50178 -3.03952 35306 ft 475 kts 169°
2026-04-20 12:56 53.43699 -3.01544 35299 ft 475 kts 170°
2026-04-20 12:56 53.37264 -2.99168 35298 ft 475 kts 170°
2026-04-20 12:57 53.30791 -2.96780 35297 ft 475 kts 169°
2026-04-20 12:57 53.24322 -2.94382 35302 ft 475 kts 169°
2026-04-20 12:58 53.17852 -2.91998 35298 ft 476 kts 170°
2026-04-20 12:58 53.11416 -2.89653 35298 ft 476 kts 170°
2026-04-20 12:59 53.04857 -2.88514 35303 ft 469 kts 186°
2026-04-20 12:59 52.98368 -2.89092 35293 ft 469 kts 186°
2026-04-20 13:00 52.91821 -2.89654 35290 ft 470 kts 187°
2026-04-20 13:00 52.85335 -2.90796 35289 ft 467 kts 192°
2026-04-20 13:01 52.78924 -2.92300 35287 ft 467 kts 192°
2026-04-20 13:01 52.72503 -2.93815 35268 ft 467 kts 193°
2026-04-20 13:02 52.65971 -2.94551 35285 ft 471 kts 187°
2026-04-20 13:02 52.59399 -2.95100 35285 ft 471 kts 187°
2026-04-20 13:03 52.52871 -2.95638 35282 ft 471 kts 187°
2026-04-20 13:03 52.46298 -2.96175 35276 ft 472 kts 188°
2026-04-20 13:04 52.39727 -2.96726 35284 ft 475 kts 188°
2026-04-20 13:04 52.33110 -2.97265 35256 ft 475 kts 188°
2026-04-20 13:05 52.26504 -2.97808 35282 ft 477 kts 188°
2026-04-20 13:05 52.19858 -2.98353 35283 ft 477 kts 188°
2026-04-20 13:06 52.13224 -2.98891 35281 ft 476 kts 188°
2026-04-20 13:06 52.06590 -2.99427 35281 ft 476 kts 188°
2026-04-20 13:07 51.99997 -2.99950 35269 ft 476 kts 188°
2026-04-20 13:07 51.93376 -3.00472 35306 ft 474 kts 188°
2026-04-20 13:08 51.86777 -3.01055 35317 ft 473 kts 190°
2026-04-20 13:08 51.80291 -3.02229 35329 ft 470 kts 194°
2026-04-20 13:09 51.73806 -3.03786 35327 ft 468 kts 194°
2026-04-20 13:09 51.67405 -3.05261 35328 ft 467 kts 193°
2026-04-20 13:10 51.60945 -3.06604 35316 ft 467 kts 193°
2026-04-20 13:10 51.54490 -3.07890 35301 ft 467 kts 193°
2026-04-20 13:11 51.48038 -3.09197 35274 ft 465 kts 193°
2026-04-20 13:11 51.41659 -3.10527 35273 ft 464 kts 193°
2026-04-20 13:12 51.35252 -3.11864 35272 ft 464 kts 193°
2026-04-20 13:12 51.28834 -3.13175 35239 ft 464 kts 193°
2026-04-20 13:13 51.22438 -3.14467 35261 ft 462 kts 193°
2026-04-20 13:13 51.16092 -3.15758 35261 ft 461 kts 193°
2026-04-20 13:14 51.09720 -3.17062 35257 ft 461 kts 193°
2026-04-20 13:14 51.03335 -3.18357 35256 ft 461 kts 193°
2026-04-20 13:15 50.96954 -3.19638 35248 ft 461 kts 194°
2026-04-20 13:15 50.90759 -3.21740 35244 ft 459 kts 196°
2026-04-20 13:16 50.84335 -3.22808 35245 ft 465 kts 189°
2026-04-20 13:16 50.77883 -3.23476 35250 ft 464 kts 191°
2026-04-20 13:17 50.71513 -3.24549 35244 ft 461 kts 193°
2026-04-20 13:17 50.65147 -3.25922 35240 ft 461 kts 194°
2026-04-20 13:18 50.58792 -3.27288 35231 ft 460 kts 192°
2026-04-20 13:18 50.52436 -3.28556 35248 ft 459 kts 192°
2026-04-20 13:19 50.46094 -3.29778 35250 ft 459 kts 192°
2026-04-20 13:19 50.39766 -3.30981 35249 ft 460 kts 189°
2026-04-20 13:20 50.33312 -3.30777 35251 ft 464 kts 181°
2026-04-20 13:20 50.26900 -3.30204 35250 ft 463 kts 181°
2026-04-20 13:21 50.20459 -3.29629 35252 ft 463 kts 181°
2026-04-20 13:21 50.14000 -3.29051 35235 ft 463 kts 181°
2026-04-20 13:22 50.07579 -3.28471 35245 ft 460 kts 181°
2026-04-20 13:22 50.01217 -3.27917 35245 ft 459 kts 181°
2026-04-20 13:23 49.94814 -3.27365 35246 ft 459 kts 181°
2026-04-20 13:23 49.88464 -3.26799 35241 ft 459 kts 181°
2026-04-20 13:24 49.82065 -3.26237 35234 ft 458 kts 181°
2026-04-20 13:24 49.75728 -3.25128 35234 ft 463 kts 174°
2026-04-20 13:25 49.69372 -3.23251 35203 ft 463 kts 174°
2026-04-20 13:25 49.63012 -3.21395 35226 ft 465 kts 175°
2026-04-20 13:26 49.56672 -3.19560 35216 ft 465 kts 175°
2026-04-20 13:26 49.50298 -3.17701 35216 ft 465 kts 175°
2026-04-20 13:27 49.43913 -3.15857 35218 ft 465 kts 175°
2026-04-20 13:27 49.37591 -3.14028 35212 ft 465 kts 175°
2026-04-20 13:28 49.31221 -3.12189 35212 ft 465 kts 175°
2026-04-20 13:28 49.25929 -3.10666 35184 ft 465 kts 175°
2026-04-20 13:29 49.19572 -3.08838 35202 ft 463 kts 175°
2026-04-20 13:29 49.13221 -3.07026 35199 ft 463 kts 175°
2026-04-20 13:30 49.06912 -3.05234 35199 ft 463 kts 175°
2026-04-20 13:30 49.00560 -3.03428 35194 ft 462 kts 175°
2026-04-20 13:31 48.94265 -3.01639 35194 ft 461 kts 175°
2026-04-20 13:31 48.87950 -2.99848 35193 ft 460 kts 175°
2026-04-20 13:32 48.81637 -2.98075 35182 ft 460 kts 175°
2026-04-20 13:32 48.75360 -2.96312 35171 ft 460 kts 175°
2026-04-20 13:33 48.69088 -2.94218 35167 ft 465 kts 168°
2026-04-20 13:33 48.62883 -2.91424 35166 ft 465 kts 168°
2026-04-20 13:34 48.56697 -2.88666 35165 ft 464 kts 168°
2026-04-20 13:34 48.50478 -2.85909 35154 ft 464 kts 168°
2026-04-20 13:35 48.44263 -2.83155 35146 ft 464 kts 168°
2026-04-20 13:35 48.38090 -2.80428 35139 ft 464 kts 168°
2026-04-20 13:36 48.31884 -2.77692 35135 ft 463 kts 168°
2026-04-20 13:36 48.25688 -2.74950 35125 ft 463 kts 168°
2026-04-20 13:37 48.19487 -2.72229 35125 ft 463 kts 168°
2026-04-20 13:37 48.13340 -2.69541 35117 ft 462 kts 168°
2026-04-20 13:38 48.07166 -2.66835 35111 ft 461 kts 168°
2026-04-20 13:38 48.00993 -2.64135 35109 ft 461 kts 168°
2026-04-20 13:39 47.94819 -2.61458 35105 ft 461 kts 168°
2026-04-20 13:39 47.88670 -2.58790 35108 ft 462 kts 168°
2026-04-20 13:40 47.82481 -2.56114 35108 ft 462 kts 168°
2026-04-20 13:40 47.76328 -2.53456 35096 ft 462 kts 169°
2026-04-20 13:41 47.70264 -2.50114 35107 ft 471 kts 155°
2026-04-20 13:41 47.65033 -2.44091 35110 ft 481 kts 135°
2026-04-20 13:42 47.60663 -2.36601 35097 ft 482 kts 133°
2026-04-20 13:42 47.54040 -2.25307 35097 ft 483 kts 134°
2026-04-20 13:43 47.49616 -2.17807 35092 ft 484 kts 134°
2026-04-20 13:43 47.45209 -2.10334 35088 ft 484 kts 134°
2026-04-20 13:44 47.40773 -2.02804 35093 ft 484 kts 134°
2026-04-20 13:44 47.36367 -1.95362 35055 ft 484 kts 134°
2026-04-20 13:45 47.31910 -1.87869 35083 ft 485 kts 134°
2026-04-20 13:45 47.27448 -1.80363 35081 ft 485 kts 134°
2026-04-20 13:46 47.23029 -1.72917 35083 ft 485 kts 134°
2026-04-20 13:46 47.18564 -1.65440 35084 ft 485 kts 134°
2026-04-20 13:47 47.13846 -1.58348 35086 ft 483 kts 142°
2026-04-20 13:47 47.08832 -1.51760 35067 ft 483 kts 142°
2026-04-20 13:48 47.03846 -1.45207 35067 ft 483 kts 142°
2026-04-20 13:48 46.98823 -1.38627 35065 ft 483 kts 142°
2026-04-20 13:49 46.93811 -1.32081 35063 ft 483 kts 142°
2026-04-20 13:49 46.88779 -1.25497 35062 ft 483 kts 142°
2026-04-20 13:50 46.83775 -1.18984 35061 ft 484 kts 142°
2026-04-20 13:50 46.78737 -1.12436 35059 ft 484 kts 142°
2026-04-20 13:51 46.73697 -1.05902 35060 ft 484 kts 142°
2026-04-20 13:51 46.68670 -0.99406 35059 ft 484 kts 142°
2026-04-20 13:52 46.63620 -0.92886 35048 ft 484 kts 142°
2026-04-20 13:52 46.58597 -0.86440 35049 ft 484 kts 142°
2026-04-20 13:53 46.53536 -0.79945 35049 ft 484 kts 142°
2026-04-20 13:53 46.48094 -0.74431 35035 ft 469 kts 165°
2026-04-20 13:54 46.44982 -0.73217 35031 ft 457 kts 179°
2026-04-20 13:54 46.41891 -0.73101 35032 ft 446 kts 192°
2026-04-20 13:54 46.35849 -0.74825 35009 ft 440 kts 199°
2026-04-20 13:55 46.29895 -0.76747 35019 ft 440 kts 199°
2026-04-20 13:55 46.23899 -0.78686 35013 ft 440 kts 199°
2026-04-20 13:56 46.17904 -0.80604 35016 ft 440 kts 199°
2026-04-20 13:56 46.11948 -0.82490 35014 ft 440 kts 199°
2026-04-20 13:57 46.05954 -0.84376 35007 ft 440 kts 199°
2026-04-20 13:57 45.99961 -0.86278 35002 ft 439 kts 199°
2026-04-20 13:58 45.94008 -0.88115 35004 ft 442 kts 194°
2026-04-20 13:58 45.90888 -0.88239 35003 ft 451 kts 183°
2026-04-20 13:58 45.87724 -0.87984 34997 ft 453 kts 182°
2026-04-20 13:59 45.81453 -0.87421 34992 ft 452 kts 183°
2026-04-20 13:59 45.75260 -0.88151 34990 ft 442 kts 195°
2026-04-20 14:00 45.69240 -0.89695 34992 ft 441 kts 196°
2026-04-20 14:00 45.63251 -0.91536 34992 ft 439 kts 199°
2026-04-20 14:01 45.57325 -0.93674 34972 ft 438 kts 200°
2026-04-20 14:01 45.52408 -0.95458 34989 ft 438 kts 199°
2026-04-20 14:02 45.46473 -0.97512 34988 ft 439 kts 199°
2026-04-20 14:02 45.40525 -0.99511 34985 ft 436 kts 199°
2026-04-20 14:03 45.34640 -1.01500 34815 ft 433 kts 199°
2026-04-20 14:03 45.31746 -1.02484 34583 ft 432 kts 199°
2026-04-20 14:03 45.28814 -1.03486 34329 ft 432 kts 199°
2026-04-20 14:04 45.25879 -1.04487 34089 ft 433 kts 199°
2026-04-20 14:04 45.22956 -1.05482 33831 ft 433 kts 199°
2026-04-20 14:04 45.20020 -1.06478 33560 ft 432 kts 199°
2026-04-20 14:04 45.17089 -1.07466 33259 ft 431 kts 198°
2026-04-20 14:05 45.14176 -1.08441 32979 ft 429 kts 198°
2026-04-20 14:05 45.11282 -1.09410 32573 ft 425 kts 198°
2026-04-20 14:05 45.08414 -1.10372 32024 ft 422 kts 198°
2026-04-20 14:05 45.05567 -1.11329 31482 ft 419 kts 198°
2026-04-20 14:06 45.02729 -1.12283 30942 ft 416 kts 198°
2026-04-20 14:06 44.99950 -1.13216 30420 ft 413 kts 198°
2026-04-20 14:06 44.97152 -1.14151 29862 ft 410 kts 198°
2026-04-20 14:06 44.94377 -1.15076 29324 ft 406 kts 198°
2026-04-20 14:07 44.91641 -1.15989 28825 ft 401 kts 198°
2026-04-20 14:07 44.88929 -1.16899 28330 ft 397 kts 198°
2026-04-20 14:07 44.86285 -1.17788 27819 ft 394 kts 198°
2026-04-20 14:07 44.83609 -1.18689 27154 ft 395 kts 198°
2026-04-20 14:08 44.80932 -1.19589 26609 ft 393 kts 198°
2026-04-20 14:08 44.78282 -1.20475 26113 ft 390 kts 198°
2026-04-20 14:08 44.75647 -1.21348 25601 ft 387 kts 198°
2026-04-20 14:08 44.73034 -1.22214 25113 ft 384 kts 198°
2026-04-20 14:09 44.70433 -1.23078 24629 ft 381 kts 198°
2026-04-20 14:09 44.67884 -1.23923 24161 ft 379 kts 198°
2026-04-20 14:09 44.65317 -1.24774 23690 ft 377 kts 198°
2026-04-20 14:09 44.62760 -1.25620 23169 ft 375 kts 198°
2026-04-20 14:10 44.60228 -1.26458 22610 ft 373 kts 198°
2026-04-20 14:10 44.57702 -1.27295 22071 ft 371 kts 198°
2026-04-20 14:10 44.55193 -1.28125 21549 ft 369 kts 198°
2026-04-20 14:10 44.52723 -1.28943 21031 ft 368 kts 198°
2026-04-20 14:11 44.50230 -1.29765 20535 ft 367 kts 198°
2026-04-20 14:11 44.47746 -1.30584 20040 ft 365 kts 198°
2026-04-20 14:11 44.45273 -1.31400 19546 ft 364 kts 198°
2026-04-20 14:11 44.42808 -1.32212 19067 ft 363 kts 198°
2026-04-20 14:12 44.40350 -1.33020 18581 ft 362 kts 197°
2026-04-20 14:12 44.37899 -1.33824 18096 ft 361 kts 197°
2026-04-20 14:12 44.35482 -1.34618 17556 ft 360 kts 197°
2026-04-20 14:12 44.33043 -1.35418 17020 ft 359 kts 197°
2026-04-20 14:13 44.30592 -1.36219 16403 ft 362 kts 197°
2026-04-20 14:13 44.28132 -1.37024 15786 ft 363 kts 197°
2026-04-20 14:13 44.25661 -1.37832 15212 ft 365 kts 197°
2026-04-20 14:13 44.23179 -1.38644 14633 ft 366 kts 197°
2026-04-20 14:14 44.20686 -1.39457 14037 ft 367 kts 197°
2026-04-20 14:14 44.18235 -1.40255 13429 ft 360 kts 196°
2026-04-20 14:14 44.15879 -1.41016 12727 ft 335 kts 196°
2026-04-20 14:14 44.13655 -1.41729 12061 ft 321 kts 196°
2026-04-20 14:15 44.11510 -1.42417 11431 ft 307 kts 196°
2026-04-20 14:15 44.09462 -1.43072 10832 ft 296 kts 196°
2026-04-20 14:15 44.07472 -1.43712 10261 ft 291 kts 195°
2026-04-20 14:15 44.05530 -1.44340 9702 ft 288 kts 196°
2026-04-20 14:16 44.03574 -1.44978 9184 ft 289 kts 195°
2026-04-20 14:16 44.01628 -1.45619 8800 ft 287 kts 196°
2026-04-20 14:16 43.99684 -1.46260 8417 ft 285 kts 196°
2026-04-20 14:16 43.97758 -1.46893 8034 ft 283 kts 195°
2026-04-20 14:17 43.95850 -1.47516 7660 ft 281 kts 195°
2026-04-20 14:17 43.93941 -1.48138 7289 ft 280 kts 195°
2026-04-20 14:17 43.92044 -1.48754 6930 ft 279 kts 195°
2026-04-20 14:17 43.90153 -1.49365 6575 ft 278 kts 195°
2026-04-20 14:18 43.88269 -1.49973 6198 ft 277 kts 194°
2026-04-20 14:18 43.86411 -1.50575 5833 ft 276 kts 194°
2026-04-20 14:18 43.84552 -1.51176 5700 ft 275 kts 194°
2026-04-20 14:18 43.82678 -1.51779 5577 ft 276 kts 194°
2026-04-20 14:19 43.80814 -1.52379 5394 ft 274 kts 194°
2026-04-20 14:19 43.78963 -1.52975 5151 ft 271 kts 194°
2026-04-20 14:19 43.77131 -1.53565 4906 ft 268 kts 194°
2026-04-20 14:19 43.75314 -1.54152 4659 ft 267 kts 193°
2026-04-20 14:20 43.73504 -1.54736 4409 ft 267 kts 193°
2026-04-20 14:20 43.71697 -1.55313 4158 ft 266 kts 193°
2026-04-20 14:20 43.69918 -1.55880 3910 ft 265 kts 193°
2026-04-20 14:20 43.68119 -1.56453 3666 ft 264 kts 193°
2026-04-20 14:21 43.66328 -1.57025 3416 ft 264 kts 193°
2026-04-20 14:21 43.64543 -1.57613 3164 ft 263 kts 196°
2026-04-20 14:21 43.62904 -1.58630 3009 ft 255 kts 212°
2026-04-20 14:21 43.61532 -1.60170 2893 ft 253 kts 226°
2026-04-20 14:22 43.60468 -1.62049 2775 ft 246 kts 233°
2026-04-20 14:22 43.59465 -1.63934 2650 ft 246 kts 233°
2026-04-20 14:22 43.58451 -1.65824 2534 ft 242 kts 233°
2026-04-20 14:22 43.57471 -1.67646 2409 ft 231 kts 233°
2026-04-20 14:23 43.56533 -1.69387 2283 ft 223 kts 233°
2026-04-20 14:23 43.55614 -1.71101 2163 ft 222 kts 233°
2026-04-20 14:23 43.54621 -1.72727 2064 ft 221 kts 218°
2026-04-20 14:23 43.53293 -1.73707 2000 ft 214 kts 193°
2026-04-20 14:24 43.51822 -1.73891 2026 ft 211 kts 176°
2026-04-20 14:24 43.50349 -1.73845 2017 ft 211 kts 177°
2026-04-20 14:24 43.48906 -1.73810 2008 ft 203 kts 178°
2026-04-20 14:24 43.47582 -1.73395 2004 ft 192 kts 147°
2026-04-20 14:25 43.46751 -1.72045 2005 ft 186 kts 109°
2026-04-20 14:25 43.46681 -1.70305 2008 ft 183 kts 80°
2026-04-20 14:25 43.46797 -1.68556 2008 ft 184 kts 88°
2026-04-20 14:25 43.46804 -1.66794 2013 ft 185 kts 90°
2026-04-20 14:26 43.46794 -1.65025 1966 ft 185 kts 90°
2026-04-20 14:26 43.46786 -1.63263 1683 ft 183 kts 89°
2026-04-20 14:26 43.46783 -1.61528 1458 ft 180 kts 89°
2026-04-20 14:26 43.46786 -1.59810 1328 ft 180 kts 88°
2026-04-20 14:27 43.46795 -1.58079 1247 ft 181 kts 88°
2026-04-20 14:27 43.46810 -1.56341 1099 ft 185 kts 87°
2026-04-20 14:27 43.46814 -1.54619 587 ft 177 kts 88°
2026-04-20 14:27 43.46813 -1.53015 1103 ft 167 kts 86°
2026-04-20 14:28 43.46840 -1.51342 1915 ft 183 kts 87°
2026-04-20 14:28 43.46898 -1.49509 2732 ft 198 kts 86°
2026-04-20 14:28 43.46987 -1.47556 3622 ft 212 kts 85°
2026-04-20 14:28 43.47105 -1.45522 4431 ft 214 kts 85°
2026-04-20 14:29 43.47339 -1.43423 4582 ft 232 kts 71°
2026-04-20 14:29 43.48224 -1.41638 4526 ft 228 kts 32°
2026-04-20 14:29 43.49724 -1.41159 4525 ft 225 kts 346°
2026-04-20 14:29 43.50997 -1.42287 4482 ft 223 kts 303°
2026-04-20 14:30 43.51557 -1.44234 4451 ft 218 kts 284°
2026-04-20 14:30 43.51953 -1.46289 4505 ft 223 kts 286°
2026-04-20 14:30 43.52661 -1.48172 4254 ft 225 kts 309°
2026-04-20 14:30 43.53839 -1.49562 4058 ft 222 kts 324°
2026-04-20 14:31 43.55105 -1.50801 4009 ft 222 kts 324°
2026-04-20 14:31 43.56374 -1.52040 4007 ft 223 kts 324°
2026-04-20 14:31 43.57647 -1.53287 4005 ft 224 kts 323°
2026-04-20 14:31 43.58903 -1.54546 4006 ft 226 kts 323°
2026-04-20 14:32 43.60179 -1.55846 3999 ft 227 kts 322°
2026-04-20 14:32 43.61217 -1.57439 3998 ft 224 kts 292°
2026-04-20 14:32 43.61445 -1.59533 3999 ft 222 kts 258°
2026-04-20 14:32 43.60815 -1.61439 4001 ft 220 kts 231°
2026-04-20 14:33 43.59863 -1.63116 3835 ft 222 kts 232°
2026-04-20 14:33 43.58939 -1.64826 3651 ft 222 kts 233°
2026-04-20 14:33 43.58045 -1.66510 3451 ft 218 kts 233°
2026-04-20 14:33 43.57160 -1.68178 3255 ft 213 kts 233°
2026-04-20 14:34 43.56293 -1.69806 3064 ft 209 kts 233°
2026-04-20 14:34 43.55432 -1.71422 2862 ft 207 kts 233°
2026-04-20 14:34 43.54474 -1.72880 2690 ft 202 kts 215°
2026-04-20 14:34 43.53687 -1.73511 2552 ft 196 kts 201°
2026-04-20 14:35 43.52377 -1.73906 2364 ft 191 kts 179°
2026-04-20 14:35 43.51049 -1.73874 2163 ft 190 kts 177°
2026-04-20 14:35 43.49240 -1.73832 2024 ft 199 kts 178°
2026-04-20 14:35 43.48310 -1.73756 2006 ft 196 kts 168°
2026-04-20 14:36 43.47152 -1.72860 2006 ft 193 kts 130°
2026-04-20 14:36 43.46638 -1.71220 2002 ft 190 kts 94°
2026-04-20 14:36 43.46832 -1.69430 2007 ft 189 kts 79°
2026-04-20 14:36 43.46917 -1.67660 2016 ft 184 kts 89°
2026-04-20 14:37 43.46892 -1.65912 2008 ft 182 kts 90°
2026-04-20 14:37 43.46857 -1.64166 2001 ft 182 kts 91°
2026-04-20 14:37 43.46807 -1.62549 1897 ft 156 kts 94°
2026-04-20 14:37 43.46721 -1.61140 1747 ft 143 kts 94°
2026-04-20 14:38 43.46685 -1.59773 1567 ft 144 kts 86°
2026-04-20 14:38 43.46772 -1.58403 1401 ft 144 kts 83°
2026-04-20 14:38 43.46811 -1.57029 1268 ft 145 kts 91°
2026-04-20 14:38 43.46831 -1.55600 962 ft 152 kts 85°
2026-04-20 14:39 43.46828 -1.54129 517 ft 157 kts 89°
2026-04-20 14:39 43.46845 -1.52640 253 ft 143 kts 89°
2026-04-20 14:39 43.46846 -1.51691 246 ft 55 kts 90°
2026-04-20 14:39 43.46846 -1.51521 245 ft 1 kts 90°
2026-04-20 14:40 43.46846 -1.51498 245 ft 10 kts 89°
2026-04-20 14:40 43.46850 -1.51282 243 ft 27 kts 88°
2026-04-20 14:40 43.46873 -1.51048 242 ft 24 kts 65°
2026-04-20 14:40 43.46865 -1.50997 242 ft 15 kts 136°
2026-04-20 14:41 43.46807 -1.51012 241 ft 2 kts 272°
2026-04-20 14:41 43.46832 -1.51077 242 ft 26 kts 298°
2026-04-20 14:41 43.46849 -1.51361 244 ft 30 kts 270°
2026-04-20 14:41 43.46849 -1.51635 245 ft 28 kts 270°
2026-04-20 14:42 43.46848 -1.51895 248 ft 26 kts 267°
2026-04-20 14:42 43.46864 -1.52135 249 ft 24 kts 308°
2026-04-20 14:42 43.46988 -1.52245 250 ft 21 kts 288°
2026-04-20 14:42 43.46997 -1.52444 252 ft 21 kts 269°
2026-04-20 14:43 43.46994 -1.52646 253 ft 21 kts 269°
2026-04-20 14:43 43.46993 -1.52847 255 ft 20 kts 269°
2026-04-20 14:43 43.46991 -1.53044 256 ft 21 kts 269°
2026-04-20 14:43 43.47032 -1.53186 257 ft 11 kts 349°
2026-04-20 14:44 43.47073 -1.53152 257 ft 6 kts 40°
2026-04-20 14:44 43.47109 -1.53119 257 ft 6 kts 24°
2026-04-20 14:44 43.47123 -1.53110 256 ft 0 kts 22°
2026-04-20 14:44 43.47129 -1.53108 256 ft 3 kts 17°
2026-04-20 14:45 43.47133 -1.53106 256 ft 0 kts 19°